Temperature
15 15 15 15 15 15 16 16 15 15 15 15 16 16 16 16 16 16 15 15 15 15 15 15 15 15 15 15 15 15 15 15 15 15 15 15 15 15 15 15 15 15 15
15 15 15 15 15 15 15 15 15 15 15 15 15 15 15 15 15 15 15 15 15 15 15 15 15 15 15 15 15 15 15 15 15 15 15 15 15 15 15 15 15 15 15
15 15 15 15 15 15 15 15 15 15 15 15 15 15 15 15 15 15 15 15 15 15 15 15 15 15 15 15 15 15 15 15 15 15 14 14 14 15 15 14 14 15 15
15 15 15 15 15 15 15 15 15 15 15 15 15 15 15 15 15 15 15 14 15 15 15 15 15 15 15 15 15 15 15 15 15 14 14 14 14 14 14 14 14 14 14
14 14 14 15 15 15 15 15 15 15 15 15 15 15 15 15 15 14 14 14 14 14 14 14 14 14 15 15 15 15 15 15 15 14 14 14 14 14 14 14 14 14 14
14 14 14 14 14 14 14 14 15 15 15 15 15 15 14 14 14 14 14 14 14 14 14 14 14 14 14 15 15 15 15 14 14 13 13 13 13 14 14 14 14 14 14
14 14 14 14 14 14 14 14 14 14 14 14 14 14 14 14 14 14 14 14 14 14 14 14 14 14 14 14 14 14 14 14 13 13 13 13 13 14 14 14 14 14 13
14 14 14 14 14 14 14 14 14 14 14 14 14 14 14 14 14 14 14 14 14 14 14 14 14 14 14 14 14 14 14 14 13 13 13 13 13 13 13 13 13 13 13
13 13 13 13 13 13 13 14 14 14 14 14 14 14 14 13 14 14 14 14 14 14 14 14 14 14 14 14 14 14 14 13 13 13 13 13 13 13 13 13 13 13 13
13 13 13 13 13 13 13 13 13 13 13 13 13 13 13 13 13 13 13 13 14 14 14 13 13 13 14 14 14 13 13 13 12 12 12 12 13 13 13 13 13 13 13
12 13 13 13 13 13 13 13 13 13 13 13 13 13 13 13 13 13 13 13 13 13 13 13 13 13 13 13 13 13 13 12 12 12 12 12 12 12 12 12 12 12 12
12 12 12 12 12 12 12 12 12 12 12 12 12 12 12 12 12 12 13 13 13 13 13 13 13 13 13 13 13 13 12 12 12 12 12 12 12 12 12 12 12 12 12
12 12 12 12 12 12 12 12 12 12 12 12 12 12 12 12 12 12 12 12 12 12 12 12 12 12 12 12 12 12 12 12 11 11 11 12 12 11 11 11 11 11 11
11 12 12 12 12 12 12 12 12 11 12 12 12 12 12 12 12 12 11 12 12 12 12 12 12 12 12 12 12 12 12 12 11 11 11 11 11 11 11 11 11 11 11
11 12 12 12 11 11 11 11 11 11 11 11 11 11 11 11 11 11 11 11 11 11 11 11 11 11 11 11 11 11 11 11 11 11 11 11 11 11 11 11 11 10 10
11 11 11 11 11 11 11 11 11 11 11 11 11 11 11 11 11 11 11 11 11 11 11 11 11 11 11 11 11 11 11 11 11 11 10 11 11 11 10 10 10 10 10
11 11 11 11 11 11 11 10 10 10 11 11 11 11 11 10 10 10 10 11 10 10 10 11 10 10 10 10 10 10 10 10 10 10 10 10 10 10 10 10 10 10 10
11 11 11 11 10 10 10 10 10 10 10 10 10 10 10 10 10 10 10 10 10 10 10 10 10 10 10 10 10 10 10 10 10 10 10 10 10 10 10 10 9 9 9
10 10 10 10 10 10 10 10 10 10 10 10 10 10 10 10 10 10 10 10 10 9 9 9 9 9 9 9 9 9 9 9 9 9 9 9 9 9 9 9 9 9 9
10 10 10 10 10 9 9 9 9 9 9 9 9 9 9 9 9 9 9 9 9 9 9 9 9 9 9 9 9 9 9 9 9 9 9 9 9 9 9 9 9 9 9
10 10 9 9 9 9 9 9 9 9 9 9 9 9 9 9 9 9 9 9 9 9 9 9 8 8 8 8 8 8 8 8 8 8 8 8 8 8 8 8 8 8 8
9 9 9 9 9 9 9 9 9 9 9 9 9 9 8 8 9 9 9 9 9 8 8 8 8 8 8 8 8 7 7 7 7 7 8 8 7 7 8 8 8 8 7
9 9 9 9 9 9 9 8 8 8 8 8 8 8 8 8 8 8 8 8 8 8 8 8 8 8 8 7 7 7 7 7 6 7 7 7 7 7 7 7 7 7 7
8 9 9 8 8 8 8 8 8 8 8 8 8 8 8 8 8 8 8 8 8 8 7 7 7 7 7 7 7 7 7 7 7 6 6 6 6 6 7 7 7 7 7
8 8 8 8 8 8 8 8 8 8 8 8 8 8 8 8 8 8 7 8 7 7 7 7 7 7 7 7 7 7 7 7 7 6 6 6 6 6 6 6 6 6 6
7 8 8 8 8 7 7 7 7 7 7 7 7 7 7 7 7 7 7 7 7 7 7 7 7 6 6 6 6 6 6 6 6 6 6 6 5 6 6 6 6 6 6
Wind_Speed
5 8 11 10 10 10 10 10 10 10 10 10 10 10 11 11 11 11 11 10 10 10 10 10 11 11 11 11 11 11 11 11 11 11 11 11 12 12 11 10 9 12 12
6 8 11 10 11 10 10 10 10 10 10 10 10 10 10 11 11 11 10 10 10 9 9 10 10 10 11 11 11 11 11 11 11 10 10 11 11 10 10 10 10 11 11
7 9 11 10 11 10 10 10 10 10 10 10 10 10 10 10 10 10 10 9 9 9 9 9 10 10 10 10 11 11 11 10 10 8 6 8 10 10 10 10 11 11 11
7 8 10 11 11 11 10 10 10 10 10 9 9 9 9 10 10 10 9 9 9 9 9 9 10 10 10 10 10 10 10 10 8 5 6 8 9 10 10 10 11 11 11
7 8 9 11 11 11 10 10 10 9 9 9 9 9 9 9 9 9 9 8 8 9 9 9 10 9 9 10 10 10 9 9 7 5 7 7 8 10 10 10 11 11 11
7 7 9 10 10 10 10 10 10 9 9 9 9 9 9 9 9 9 8 8 8 8 9 9 9 9 9 9 9 9 8 7 6 6 6 7 8 10 10 11 11 11 11
6 6 8 9 9 10 10 9 10 9 9 9 9 9 9 9 8 8 8 8 8 8 9 9 9 9 9 9 9 9 8 5 5 6 6 7 9 10 10 10 9 10 10
5 6 7 8 9 9 9 9 9 9 9 9 8 9 9 9 8 8 8 8 8 8 8 9 9 9 9 9 9 8 7 5 5 6 6 7 9 9 10 10 10 10 10
5 5 6 7 8 8 8 9 9 9 9 9 8 8 8 8 8 8 8 7 8 8 8 8 9 9 9 9 9 8 7 4 5 5 5 6 8 9 9 9 9 9 9
4 4 5 5 5 6 7 8 9 9 9 9 9 8 8 8 8 8 7 7 7 8 8 8 9 9 9 9 9 8 6 4 4 5 5 6 8 8 8 8 8 8 8
4 4 4 4 4 5 6 7 8 9 9 9 8 9 7 6 6 6 6 7 7 7 7 8 9 9 9 9 8 6 4 4 4 4 5 7 7 7 8 8 8 8 8
6 5 4 4 4 4 5 5 6 7 7 7 6 7 6 5 5 5 7 6 7 7 7 8 9 8 6 6 6 5 4 4 4 4 5 7 7 8 8 8 8 8 8
7 6 5 4 4 4 4 4 3 4 5 6 7 7 6 5 5 4 4 5 6 6 6 7 7 5 5 5 5 4 3 3 3 4 5 6 7 7 7 7 7 7 7
7 7 6 5 4 4 4 3 3 3 3 4 5 7 6 4 4 4 3 4 4 4 4 5 4 5 5 5 5 5 4 3 3 3 5 6 6 7 7 7 6 6 6
8 7 6 5 5 5 4 3 3 3 3 3 4 6 6 4 4 4 4 4 4 4 4 4 5 5 5 5 4 4 4 4 3 4 5 7 6 6 6 6 6 6 5
8 7 6 6 6 5 4 4 4 4 3 3 3 5 6 5 4 4 4 3 3 4 4 4 5 5 4 4 4 4 4 3 3 3 5 6 7 6 6 6 6 6 5
8 8 7 6 6 6 5 5 4 4 4 3 3 5 5 5 5 4 4 4 4 4 4 4 5 4 4 4 4 3 3 3 3 4 4 4 5 5 6 6 5 5 4
8 8 7 6 7 6 5 5 4 4 4 4 4 4 5 6 6 5 4 4 4 4 4 4 4 4 4 3 3 2 2 3 3 3 4 4 4 4 5 5 5 4 3
8 8 8 7 7 7 6 5 4 4 4 4 4 4 5 6 6 5 4 4 5 4 4 4 4 4 4 3 3 2 2 2 2 3 4 4 4 3 4 5 4 3 2
8 8 8 8 7 7 5 5 4 4 4 4 4 4 5 6 7 6 4 5 5 4 4 4 4 4 4 4 3 2 2 2 2 2 3 3 4 3 3 3 3 2 2
8 8 8 8 8 7 5 5 5 5 4 4 4 5 6 6 7 6 5 5 5 5 5 5 4 5 4 4 3 2 2 2 1 1 2 3 3 3 2 2 2 2 1
9 8 8 9 9 8 7 6 5 5 4 4 4 5 6 6 7 6 6 5 5 5 6 6 6 5 3 4 3 3 2 3 2 1 2 2 2 2 2 2 1 1 1
9 9 8 9 9 9 8 6 5 4 3 4 4 4 5 6 6 6 6 6 6 6 6 6 7 6 5 4 3 3 3 3 2 2 3 2 2 2 1 2 2 2 1
8 8 8 9 9 9 9 8 9 7 6 6 6 5 5 5 6 6 6 6 6 6 6 7 6 5 6 5 4 1 1 1 2 2 3 3 3 3 2 2 2 2 2
7 7 8 8 9 9 9 9 9 8 6 5 5 6 5 5 5 5 6 6 6 5 6 7 6 6 6 6 4 3 2 1 2 2 3 3 3 4 3 3 3 3 2
6 6 7 8 8 9 9 9 9 9 8 7 7 6 5 4 4 5 5 6 6 6 7 7 7 7 6 6 5 4 4 3 3 3 3 4 4 3 3 3 4 3 3
Wind_Direction
152 152 146 145 141 134 131 128 127 125 123 124 127 125 126 125 125 123 118 114 111 111 109 106 105 104 105 105 102 99 96 95 93 89 88 89 89 90 88 89 94 90 84
149 150 145 146 141 135 132 130 128 125 123 123 124 125 126 125 124 123 121 118 114 110 111 110 108 107 106 107 107 106 102 98 94 92 97 100 95 92 89 81 72 86 87
146 147 148 144 139 135 133 132 131 128 127 126 125 123 124 126 125 123 122 119 117 113 112 110 110 109 107 105 108 108 106 103 100 101 117 110 103 97 95 93 90 91 88
145 148 146 140 139 136 133 133 134 132 129 128 128 127 125 123 126 125 124 120 118 116 114 111 110 110 109 110 110 112 111 107 106 123 107 98 103 100 97 95 94 89 86
142 145 138 138 139 138 135 131 130 133 133 132 130 128 127 123 121 122 122 120 116 115 115 113 112 111 113 114 114 113 115 113 118 120 99 99 100 99 96 94 92 89 85
139 141 136 137 140 140 137 134 131 129 131 134 132 130 128 124 120 119 118 118 118 118 117 115 113 115 115 116 116 116 115 126 141 115 107 105 103 101 98 93 90 88 85
136 137 138 138 142 143 142 139 135 133 130 130 133 132 129 126 121 118 117 117 117 121 120 114 112 115 119 119 117 116 114 130 127 113 108 104 101 102 101 98 97 94 89
137 134 136 135 141 146 146 143 140 137 131 127 127 130 129 126 121 120 119 118 119 120 120 118 118 116 113 116 117 115 116 124 125 113 106 101 101 107 104 98 97 94 90
137 136 135 144 147 148 147 145 144 139 134 130 127 122 122 124 124 123 122 121 123 123 120 121 123 119 116 112 114 114 112 114 117 115 107 99 104 109 106 103 99 96 93
143 140 142 146 151 155 154 149 148 143 140 135 130 122 117 120 124 127 129 123 124 125 124 122 121 119 116 112 110 114 120 140 117 121 111 104 104 107 107 107 103 99 94
164 157 149 153 150 152 157 154 156 152 148 146 141 132 138 140 138 137 123 123 125 127 127 126 122 119 120 116 112 117 142 141 117 105 107 102 109 110 107 105 101 101 97
186 181 170 165 165 161 157 160 168 169 165 168 162 156 157 149 142 134 120 122 125 128 130 128 124 129 138 136 131 141 144 137 121 106 105 107 116 115 110 106 101 98 95
193 189 185 179 177 170 163 166 169 171 171 175 172 167 162 154 149 148 149 148 145 149 147 143 147 144 143 139 143 148 142 135 129 114 107 111 115 115 113 108 103 98 95
198 195 191 186 182 177 171 167 166 168 170 175 178 178 172 161 160 161 162 163 165 167 161 164 161 154 147 146 147 146 143 141 137 123 105 114 122 121 117 111 108 102 96
203 200 195 193 191 186 177 175 170 172 176 176 181 184 181 171 170 166 165 166 170 174 173 170 166 157 151 146 145 145 141 142 144 141 122 102 106 115 115 111 108 104 101
207 203 193 193 194 189 183 183 179 173 167 179 179 185 183 179 175 173 168 166 171 179 179 175 168 162 155 148 147 150 147 146 149 145 140 119 102 107 112 112 109 102 96
209 203 195 192 191 191 186 187 181 179 172 171 182 184 184 183 181 175 174 174 175 177 177 173 167 165 158 153 152 148 140 143 150 148 142 137 125 112 111 112 108 102 97
206 202 197 193 190 191 188 185 182 179 177 173 180 184 185 188 186 179 176 177 176 178 179 177 177 172 166 162 154 141 132 131 138 144 137 133 129 135 130 120 114 109 106
204 200 196 193 192 189 186 182 179 172 175 176 175 185 190 192 190 184 180 176 175 177 181 185 187 180 168 161 152 143 139 136 138 151 144 132 125 127 136 127 120 115 116
203 200 196 192 190 186 181 179 173 171 174 176 170 184 190 189 190 189 182 179 177 178 184 187 183 175 171 162 147 131 119 132 147 154 156 144 136 135 136 145 150 135 115
198 195 194 192 187 182 181 182 179 182 182 181 171 183 191 187 189 189 180 178 183 187 187 184 179 170 166 161 152 138 119 127 149 156 161 161 148 148 150 152 162 165 158
197 195 196 194 189 187 188 185 187 179 185 180 174 181 192 189 188 188 183 182 187 187 185 184 183 179 174 180 177 168 174 188 188 194 185 179 172 163 170 174 180 174 181
197 196 196 196 191 189 184 174 168 164 163 174 184 189 194 192 188 190 190 185 186 186 186 186 188 190 186 185 197 199 194 202 180 194 206 203 199 201 201 199 212 212 220
201 197 196 195 191 188 182 182 181 181 181 190 191 191 191 193 191 191 191 188 187 190 191 192 193 196 190 189 189 217 280 192 190 187 199 210 223 233 236 230 226 226 235
194 193 194 193 190 188 188 186 186 186 185 180 181 183 185 187 191 190 190 190 191 193 195 195 193 198 200 198 193 186 182 196 222 214 218 217 223 231 236 241 241 240 244
188 186 188 190 190 189 189 190 191 187 182 176 178 180 186 188 193 193 192 195 194 194 195 196 197 201 205 204 203 199 199 203 209 215 228 229 231 229 238 241 241 240 243
Height
1524 1525 1526 1528 1529 1531 1532 1533 1534 1535 1536 1538 1539 1539 1540 1540 1541 1541 1542 1543 1543 1544 1545 1545 1545 1546 1546 1546 1546 1546 1546 1547 1547 1547 1547 1547 1548 1548 1548 1548 1548 1548 1548
1523 1524 1526 1528 1529 1531 1532 1533 1534 1536 1537 1538 1539 1539 1540 1541 1541 1542 1542 1543 1544 1544 1545 1545 1546 1546 1547 1547 1547 1547 1547 1548 1548 1548 1548 1549 1549 1549 1549 1549 1549 1549 1549
1522 1524 1526 1528 1529 1530 1532 1533 1534 1535 1536 1537 1538 1539 1540 1541 1541 1542 1542 1543 1544 1545 1545 1546 1546 1546 1547 1547 1548 1548 1548 1548 1549 1549 1550 1551 1550 1550 1550 1550 1550 1550 1550
1522 1524 1525 1527 1529 1530 1531 1533 1534 1535 1536 1537 1538 1539 1540 1540 1541 1542 1542 1543 1544 1544 1545 1546 1546 1547 1547 1548 1548 1549 1549 1549 1550 1550 1551 1552 1551 1551 1551 1551 1551 1551 1551
1522 1524 1525 1527 1528 1530 1531 1532 1533 1535 1536 1537 1537 1538 1539 1540 1541 1541 1542 1543 1544 1544 1545 1546 1546 1547 1548 1548 1549 1549 1550 1550 1551 1551 1552 1552 1552 1552 1552 1552 1552 1552 1552
1522 1523 1525 1526 1527 1529 1530 1531 1533 1534 1535 1536 1537 1538 1538 1539 1540 1541 1542 1542 1543 1544 1545 1545 1546 1547 1548 1548 1549 1549 1550 1551 1551 1552 1553 1553 1553 1553 1553 1553 1553 1552 1553
1521 1523 1524 1525 1527 1528 1529 1531 1532 1533 1534 1535 1536 1537 1538 1539 1539 1540 1541 1542 1543 1544 1544 1545 1546 1547 1548 1548 1549 1550 1550 1551 1552 1553 1553 1553 1553 1553 1553 1553 1553 1553 1553
1520 1522 1523 1524 1526 1527 1529 1530 1531 1532 1533 1534 1535 1536 1537 1538 1539 1540 1541 1541 1542 1543 1544 1545 1546 1547 1547 1548 1549 1550 1551 1551 1552 1553 1553 1554 1553 1554 1554 1554 1553 1553 1553
1520 1521 1522 1524 1525 1526 1527 1529 1530 1531 1532 1533 1534 1535 1536 1537 1538 1539 1540 1541 1542 1543 1544 1545 1546 1547 1547 1548 1549 1550 1551 1551 1553 1553 1553 1554 1554 1554 1554 1554 1554 1553 1553
1518 1520 1521 1522 1523 1525 1526 1527 1528 1530 1531 1532 1533 1534 1535 1536 1537 1538 1539 1540 1541 1542 1543 1544 1545 1546 1547 1548 1549 1550 1551 1552 1553 1553 1553 1554 1554 1554 1554 1554 1553 1553 1553
1517 1518 1519 1520 1522 1523 1524 1525 1527 1528 1529 1531 1532 1533 1534 1535 1536 1537 1538 1539 1540 1541 1542 1543 1544 1545 1546 1547 1548 1549 1550 1552 1552 1553 1553 1553 1553 1554 1554 1554 1553 1553 1553
1514 1516 1517 1518 1519 1521 1522 1523 1525 1526 1527 1529 1530 1531 1532 1533 1534 1536 1537 1538 1539 1540 1541 1542 1543 1544 1545 1546 1547 1548 1550 1551 1552 1552 1552 1552 1553 1553 1553 1553 1553 1553 1553
1512 1513 1514 1516 1517 1518 1520 1521 1522 1524 1525 1526 1528 1529 1530 1531 1533 1534 1535 1536 1538 1539 1540 1541 1542 1543 1544 1545 1546 1547 1549 1550 1550 1551 1551 1552 1552 1553 1553 1553 1553 1553 1553
1509 1510 1512 1513 1514 1516 1517 1518 1520 1521 1522 1524 1525 1526 1528 1529 1530 1532 1533 1534 1535 1537 1538 1539 1540 1541 1543 1544 1545 1546 1547 1548 1549 1549 1550 1551 1552 1552 1552 1553 1552 1552 1552
1506 1507 1508 1510 1511 1513 1514 1515 1517 1518 1519 1521 1522 1524 1525 1527 1528 1529 1531 1532 1533 1535 1536 1537 1539 1540 1541 1542 1543 1544 1545 1546 1547 1548 1549 1550 1550 1551 1551 1552 1552 1551 1551
1502 1503 1505 1507 1508 1510 1511 1513 1514 1515 1516 1518 1519 1521 1523 1524 1525 1527 1528 1529 1531 1532 1534 1535 1537 1538 1539 1540 1542 1543 1544 1545 1546 1547 1548 1548 1549 1550 1550 1550 1550 1550 1550
1498 1500 1501 1503 1505 1506 1508 1509 1511 1512 1514 1515 1516 1518 1520 1521 1523 1524 1525 1527 1528 1530 1532 1533 1535 1536 1537 1539 1540 1541 1542 1543 1544 1545 1546 1547 1547 1548 1548 1549 1549 1549 1549
1495 1496 1498 1499 1501 1503 1504 1506 1508 1509 1511 1512 1514 1516 1517 1519 1520 1522 1523 1524 1526 1528 1529 1531 1532 1534 1535 1536 1538 1539 1540 1541 1542 1543 1544 1545 1545 1546 1547 1547 1547 1547 1547
1490 1492 1494 1496 1498 1500 1501 1503 1505 1506 1507 1509 1511 1513 1515 1516 1518 1519 1520 1522 1523 1525 1527 1529 1530 1531 1533 1534 1535 1536 1538 1539 1540 1541 1542 1542 1543 1544 1545 1545 1545 1545 1545
1486 1488 1490 1492 1494 1496 1498 1500 1501 1503 1504 1506 1508 1510 1512 1513 1515 1516 1517 1519 1521 1522 1524 1526 1528 1529 1530 1532 1533 1534 1535 1536 1537 1538 1539 1540 1541 1542 1542 1543 1543 1543 1543
1482 1484 1486 1488 1490 1492 1494 1495 1497 1499 1501 1503 1505 1507 1509 1510 1512 1513 1515 1516 1518 1520 1521 1523 1525 1527 1528 1529 1531 1532 1533 1534 1535 1535 1536 1537 1538 1539 1540 1540 1541 1541 1541
1477 1479 1481 1483 1486 1488 1490 1492 1494 1496 1498 1499 1502 1504 1506 1508 1509 1510 1512 1513 1515 1517 1519 1521 1522 1524 1525 1527 1528 1530 1531 1533 1532 1533 1534 1535 1536 1536 1537 1538 1538 1538 1538
1472 1474 1477 1479 1481 1484 1486 1488 1490 1492 1494 1496 1498 1501 1503 1504 1506 1507 1509 1511 1512 1514 1516 1517 1519 1521 1522 1524 1526 1528 1529 1529 1530 1530 1530 1531 1533 1534 1534 1535 1535 1535 1535
1468 1470 1473 1475 1477 1480 1482 1483 1485 1487 1489 1491 1494 1497 1499 1501 1502 1504 1506 1507 1509 1511 1512 1514 1516 1518 1520 1521 1522 1524 1525 1526 1527 1528 1528 1529 1529 1530 1531 1531 1532 1532 1532
1465 1467 1469 1471 1474 1476 1478 1480 1482 1484 1486 1489 1491 1493 1495 1497 1499 1501 1503 1504 1506 1507 1509 1511 1513 1515 1516 1518 1519 1520 1522 1523 1523 1525 1525 1526 1526 1527 1528 1528 1528 1528 1528
1462 1463 1465 1467 1469 1471 1473 1476 1478 1480 1483 1485 1487 1490 1492 1494 1496 1497 1499 1501 1502 1504 1506 1507 1509 1511 1513 1514 1516 1517 1518 1519 1520 1521 1522 1522 1522 1523 1523 1524 1524 1525 1525